Simultaneous Nadir Overpasses (SNOs) Predictions

Prediction of SNOs between AQUA and GOES-15 Satellite Orbit:

Table of predicted SNOs for the next 14.0 days since TLE Epoch: 2/14/2020
Index Date Time (AQUA) AQUA Lat,Lon GOES-15 Lat,Lon Distance(km) Time Diff (sec)
1 02/14/2020 22:16:34 -0.01,-130.23 0.37,-128.37 210.85 80
2 02/16/2020 22:04:24 0.61,-127.27 0.37,-128.40 128.31 80
3 02/17/2020 10:25:40 0.47,-132.43 -0.37,-128.39 459.58 80
4 02/18/2020 21:52:14 1.24,-124.32 0.36,-128.43 467.01 80
5 02/19/2020 10:13:30 -0.15,-129.48 -0.36,-128.41 121.03 80
6 02/21/2020 10:01:20 -0.78,-126.52 -0.36,-128.43 217.26 80
7 02/21/2020 22:22:44 -0.35,-131.71 0.36,-128.45 370.73 80
8 02/23/2020 22:10:34 0.28,-128.76 0.36,-128.47 32.58 80
9 02/25/2020 21:58:24 0.93,-125.81 0.36,-128.49 305.39 80
10 02/26/2020 10:19:40 0.18,-130.96 -0.36,-128.48 282.44 80
11 02/28/2020 10:07:30 -0.46,-128.01 -0.36,-128.49 54.96 80




NCC Satellite Simultaneous Nadir Overpasses (SNOs) Prediction Service
